2020 TX1
ephemeris date magn radius delta ra dec elong phase
Today15 Oct 202532.23.499 AU4.486 AU13h47m-10°39'7.2°2.1°
2020 TX1 - 2025-10-15
astro.vanbuitenen.nl


 
-1 year
-1 month
-1 day
Now
+1 day
+1 month
+1 year

The interactive orbit chart above shows the body's path through the solar system and its position at the given date. Green and blue lines are shown perpendicular to the ecliptic plane: Green if the path is above the ecliptic plane, blue if it is below. (Left-click and drag to rotate the view; Right-click and drag to move the view; Use scroll wheel to zoom in our out.)

The orbital elements of 2020 TX1 are:

            e (Eccentricity)                : 0.5719149
            a (Semimajor axis)              : 2.3607908
            i (Inclination)                 : 2.98512
            Ω (Longitude of ascending node) : 201.22942
            ω (Argument of perihelion)      : 206.88372
            M (Mean anomaly)                : 85.58279
            Epoch                           : 2025 May 05

            L (Longitude of perihelion)     : 228.08178
            B (Latitude of perihelion)      : -1.34933
            P (Orbital period in years)     : 3.63            
        

The light curve chart below shows the estimated development of the minor planet's magnitude.


The all-sky chart below shows the path of the minor planet over the same period as the light curve. The current position is marked yellow.





The following chart shows the path of the minor planet in the next few days. The field of view is optimized for (~10x50) binoculars and finderscopes. A more printer-friendly version of the same chart can be found below.




Ephemerides:
Date       Time       RA (2000)    DEC (2000)    delta   radius  elong  phase   PA    magn
2025-10-15 00:00 UT   13 47 24.5   -10 39 56     4.486    3.499    7.2    2.1   108   32.2 
2025-10-15 23:07 UT   13 48 30.6   -10 45 51     4.490    3.502    6.6    1.9   107   32.2 
2025-10-16 00:00 UT   13 48 33.2   -10 46 04     4.490    3.502    6.5    1.9   107   32.2 
2025-10-17 00:00 UT   13 49 41.8   -10 52 11     4.494    3.504    5.8    1.7   107   32.2 
2025-10-18 00:00 UT   13 50 50.5   -10 58 17     4.497    3.506    5.1    1.5   106   32.2 
2025-10-19 00:00 UT   13 51 59.2   -11 04 22     4.501    3.509    4.5    1.3   105   32.2 
2025-10-20 00:00 UT   13 53 08.0   -11 10 25     4.504    3.511    3.8    1.1   104   32.2 
2025-10-21 00:00 UT   13 54 16.7   -11 16 28     4.507    3.513    3.1    0.9   103   32.1 
2025-10-22 00:00 UT   13 55 25.5   -11 22 29     4.509    3.515    2.4    0.7   100   32.1 
2025-10-23 00:00 UT   13 56 34.3   -11 28 28     4.512    3.517    1.7    0.5    96   32.1 
2025-10-24 00:00 UT   13 57 43.1   -11 34 27     4.514    3.520    1.0    0.3    86   32.1 
2025-10-25 00:00 UT   13 58 51.8   -11 40 24     4.516    3.522    0.5    0.1    51   32.1 
2025-10-26 00:00 UT   14 00 00.6   -11 46 19     4.518    3.524    0.6    0.2   334   32.1 
2025-10-27 00:00 UT   14 01 09.4   -11 52 13     4.520    3.526    1.2    0.3   311   32.1 
2025-10-28 00:00 UT   14 02 18.1   -11 58 06     4.521    3.528    1.9    0.5   303   32.1 
2025-10-29 00:00 UT   14 03 26.8   -12 03 57     4.523    3.531    2.6    0.7   300   32.1 
2025-10-30 00:00 UT   14 04 35.5   -12 09 46     4.524    3.533    3.3    0.9   298   32.2 
2025-10-31 00:00 UT   14 05 44.2   -12 15 34     4.525    3.535    4.0    1.1   296   32.2 
2025-11-01 00:00 UT   14 06 52.8   -12 21 20     4.525    3.537    4.7    1.3   295   32.2 
2025-11-02 00:00 UT   14 08 01.4   -12 27 05     4.526    3.539    5.4    1.5   295   32.2 
2025-11-03 00:00 UT   14 09 09.9   -12 32 48     4.526    3.541    6.1    1.7   294   32.2 
2025-11-04 00:00 UT   14 10 18.4   -12 38 29     4.526    3.543    6.8    1.9   293   32.3 
2025-11-05 00:00 UT   14 11 26.9   -12 44 09     4.526    3.545    7.5    2.1   293   32.3 
2025-11-06 00:00 UT   14 12 35.3   -12 49 46     4.526    3.547    8.2    2.3   293   32.3 
2025-11-07 00:00 UT   14 13 43.6   -12 55 22     4.525    3.549    8.9    2.5   292   32.3 
2025-11-08 00:00 UT   14 14 51.9   -13 00 57     4.524    3.551    9.6    2.7   292   32.3 
2025-11-09 00:00 UT   14 16 00.1   -13 06 29     4.523    3.553   10.3    2.9   292   32.3 
2025-11-10 00:00 UT   14 17 08.3   -13 11 60     4.522    3.555   11.1    3.1   292   32.3 
2025-11-11 00:00 UT   14 18 16.3   -13 17 28     4.521    3.557   11.8    3.3   291   32.4 
2025-11-12 00:00 UT   14 19 24.3   -13 22 55     4.519    3.559   12.5    3.4   291   32.4 


    Terminology:
            
    delta:  distance between minor planet and earth in AU
    radius: distance between minor planet and sun in AU
    magn:   magnitude (brightness) estimate    
    ra:     right ascension in hours (24h = 360deg)
    dec:    declination in degrees
    elong:  elongation in degrees (angle sun-earth-minor planet)    
    phase:  phase angle in degrees (angle sun-minor planet-earth)        
    AU:     Astronomical Unit (mean distance between earth and sun: 149597870.7 km
    

Orbital elements provided by the MPC (Minor Planet Center).
Calculations by a modified version of AAPlus, a C# implementation of the AA+ project by PJ Naughter from the algorithms presented in the book "Astronomical Algorithms" by Jean Meeus.
NGC2000 dso catalog and star labels from VizieR as provided by the Strasbourg astronomical Data Center.
Tycho2 catalog from the ESO archive.